Location: McFarlands Corners
(41.4117°N, 81.3382°W)
Time: 09:01:18
(UTC+00:00)

Vanguard 1 Rocket - Pass Details

Date: 16 February 2026
Orbit: 653 x 4214 km, 34.3° (Epoch: 8 March)

Event Time Altitude Azimuth Distance (km) Brightness Sun altitude
Rises 03:19:35 0° 280° (W) 7,805 12.8 -47.9°
Reaches altitude 10° 03:27:12 10° 266° (W) 7,166 12.3 -49.1°
Maximum altitude 03:41:55 19° 230° (SW) 6,584 11.7 -51.2°
Enters shadow 03:54:57 12° 197° (SSW) 6,874 11.6 -53.1°
